Location: Hains Lake
(37.8540°N, 99.8578°W)
Time: 22:38:07
(UTC+00:00)

deb Explorer IX - Pass Details

Date: 27 April 2021
Orbit: 541 x 1098 km, 38.8° (Epoch: 13 May)

Event Time Altitude Azimuth Distance (km) Brightness Sun altitude
Rises 13:24:44 0° 278° (W) 2,688 ? 17.9°
Reaches altitude 10° 13:26:55 10° 279° (W) 1,804 ? 18.3°
Maximum altitude 13:31:00 84° 7° (N) 570 ? 19.1°
Drops below altitude 10° 13:35:26 10° 96° (E) 1,949 ? 20.0°
Sets 13:37:52 0° 98° (E) 2,926 ? 20.5°
